www.pogodaiklimat.ru
ПОГОДА в Флиппине
Время
и дата
02:56 20.06
03:56 20.06
04:56 20.06
05:56 20.06
06:56 20.06
07:56 20.06
08:56 20.06
09:56 20.06
10:56 20.06
11:56 20.06
12:56 20.06
13:56 20.06
14:56 20.06
15:56 20.06
16:56 20.06
17:56 20.06
18:56 20.06
19:56 20.06
20:56 20.06
21:56 20.06
22:56 20.06
23:56 20.06
00:56 21.06
01:56 21.06
02:56 21.06
03:56 21.06
04:56 21.06
05:56 21.06
06:56 21.06
07:56 21.06
08:56 21.06
09:56 21.06
10:56 21.06
11:56 21.06
12:56 21.06
13:56 21.06
14:56 21.06
15:56 21.06
15:56 22.06
16:56 22.06
17:56 22.06
18:56 22.06
19:56 22.06
20:56 22.06
21:56 22.06
22:56 22.06
23:56 22.06
00:56 23.06
Ветер
(напр.,м/с)
Видим. Явления Облачность Т
(С)
Тd
(С)
f
(%)
Тe
(С)
Тes
(С)
Комфортность P
(гПа)
Po
(гПа)
Тmin
(С)
Tmax
(С)
R
(мм)
R24
(мм)
S
(см)
16 км ясно +21.1 +20.0 93 +26 +26 душно 1023.1 997.3
16 км ясно +20.6 +19.4 93 +25 +25 комфорт 1023.2 997.6
14 км ясно +20.6 +20.0 96 +25 +25 комфорт 1023.8 998.3
16 км ясно +22.2 +20.6 91 +29 +29 очень
душно
1024.4 998.6 +20.0 +22.2
16 км ясно +23.3 +21.1 87 +31 +32 очень
душно
1024.7 999.3
16 км ясно +24.4 +21.7 85 +31 +36 очень
душно
1024.8 999.3
16 км ясно +26.7 +21.7 74 +34 +44 очень
душно
1025.3 999.6
16 км ясно +27.8 +21.7 69 +36 +52 опасность
солнечного
удара
1025.1 999.6
16 км 5/0 2550 m
[Ac]
+29.4 +20.0 57 +36 +50 очень
душно
1025.2 999.6
6 км мгла ясно +30.0 +20.6 57 +37 +63 опасность
солнечного
удара
1024.7 999.3 +21.7 +30.6
16 км 10/2 1260 m
[Ac]
+31.7 +20.6 52 +39 +46 очень
душно
1024.4 998.6
16 км ясно +32.2 +20.6 50 +39 +67 опасность
солнечного
удара
1023.8 997.9
16 км ясно +32.2 +20.0 49 +39 +63 опасность
солнечного
удара
1023.2 997.6
16 км ясно +32.8 +19.4 45 +38 +57 опасность
солнечного
удара
1022.7 996.9
16 км 5/5 1500 м +32.2 +20.6 50 +39 +45 очень
душно
1022.1 996.6
16 км ясно +30.0 +20.6 57 +37 +43 очень
душно
1021.7 996.3 +30.0 +33.3
16 км 8/8 1650 м +28.9 +21.1 63 +36 +37 очень
душно
1021.8 996.3
16 км 8/8 1350 м +27.2 +21.1 69 +34 +34 очень
душно
1022.0 996.6
16 км ясно +25.6 +20.6 74 +32 +32 очень
душно
1022.3 996.9
16 км ясно +24.4 +20.0 76 +30 +30 очень
душно
1022.6 996.9
16 км ясно +23.3 +20.0 82 +30 +30 очень
душно
1023.1 997.3
16 км ясно +21.7 +20.0 90 +27 +27 душно 1023.0 997.6 +21.7 +30.6
16 км ясно +21.1 +19.4 90 +26 +26 душно 1023.2 997.6
16 км ясно +20.6 +19.4 93 +25 +25 комфорт 1023.0 997.3
16 км ясно +20.6 +19.4 93 +25 +25 комфорт 1023.4 997.6
16 км ясно +20.0 +19.4 96 +23 +23 комфорт 1023.7 997.9
11 км ясно +19.4 +18.9 97 +22 +22 комфорт 1023.7 998.3
13 км ясно +20.0 +19.4 96 +23 +23 комфорт 1023.9 998.3 +19.4 +21.7
14 км ясно +21.1 +19.4 90 +26 +27 душно 1024.1 998.6
16 км ясно +22.8 +20.0 84 +29 +34 очень
душно
1024.3 998.6
16 км ясно +27.8 +21.1 67 +35 +45 очень
душно
1024.1 998.3
16 км ясно +29.4 +21.7 63 +37 +54 опасность
солнечного
удара
1024.0 998.3
16 км ясно +31.1 +20.0 52 +38 +60 опасность
солнечного
удара
1023.5 997.6
16 км ясно +32.2 +20.6 50 +39 +66 опасность
солнечного
удара
1022.5 996.9 +20.0 +32.2
16 км 2/2 1800 м +31.7 +20.0 50 +38 +61 опасность
солнечного
удара
1021.7 996.0
16 км 5/5 1500 м +31.7 +20.6 52 +39 +53 опасность
солнечного
удара
1020.6 995.3
16 км 2/2 1800 м +33.3 +20.6 47 +40 +59 опасность
солнечного
удара
1020.3 994.6
16 км ясно +32.2 +20.0 49 +39 +57 опасность
солнечного
удара
1019.4 994.0
16 км 5/0 2100 m
[Ac]
+34.4 +20.0 43 +40 +52 опасность
солнечного
удара
1013.6 988.0
16 км 5/0 2400 m
[Ac]
+34.4 +20.6 45 +41 +49 опасность
перегрева
1013.2 987.7
16 км ясно +33.3 +20.6 47 +40 +46 очень
душно
1013.1 987.7 +33.3 +35.0
16 км ясно +31.7 +20.6 52 +39 +41 очень
душно
1013.0 987.7
16 км ясно +29.4 +21.1 61 +37 +37 очень
душно
1012.9 987.7
16 км ясно +27.8 +20.6 65 +35 +35 очень
душно
1012.9 987.7
16 км ясно +26.1 +21.1 74 +33 +33 очень
душно
1013.0 987.7
16 км ясно +25.6 +20.6 74 +32 +32 очень
душно
1012.9 987.7
16 км ясно +25.6 +20.6 74 +32 +32 очень
душно
1012.4 987.4 +25.0 +33.3
16 км ясно +25.0 +20.6 77 +31 +31 очень
душно
1012.1 987.0
Местоположение метеостанции Marion County Regional Airport: широта 36.3000 долгота -92.5833 высота над уровнем моря 219 м.
В архиве по умолчанию представлена погода в Флиппине за последние 1-2 суток. Обновление информации о фактической погоде в базе происходит ежечасно! Архивные данные за месяц целиком и за предыдущие месяцы Вы можете получить, выбрав интересующий диапазон дат из раскрывающегося списка и нажав кнопку "Ввод!".
Внимание! Архив погоды МЕТАР в базе сайта по станциям, не включенным в климатический монитор, хранится не более 60 дней. Нет смысла пытаться выбрать более раннюю дату.
*Определитесь, кто Вы:
Внимание! Время в таблицах - местное (без учета летнего времени). Для получения всемирного времени необходимо вычесть поправку, которая равна -6 ч.
Смотрите также архив погоды в соседних городах и на ближайших метеорологических станциях:
Партнеры нашего сайта:      
Пояснения к столбцам:
  • Ветер - указаны скорость ветра в м/с - средняя за 10 мин, порывы в срок и между сроками (в фигурных скобках) и направление, откуда дует ветер: С - северный,
  • СВ - северо-восточный, В - восточный, ЮВ - юго-восточный, Ю - южный, ЮЗ - юго-западный, З - западный, СЗ - северо-западный.
  • Видимость - горизонтальная дальность видимости в метрах или километрах. При видимости от 1 до 10 км при отсутствии осадков обычно наблюдается дымка, при ухудшении видимости до 1 км и менее - туман. В сухую погоду видимость может ухудшаться дымом, пылью или мглою.
  • Явления - указаны атмосферные явления, наблюдавшиеся в срок или в последний час перед сроком; фигурными скобками обозначены явления, наблюдавшиеся между сроками (за 1-3 часа до срока); квадратными скобками обозначены град или гололедные отложения с указанием их диаметра в мм.
  • Облачность - указаны через наклонную черту общая и нижняя облачность в баллах и высота нижней границы облаков в метрах; квадратными скобками обозначены формы облаков: Ci - перистые, Cs - перисто-слоистые, Cc - перисто-кучевые, Ac - высококучевые, As - высокослоистые, Sc - слоисто-кучевые, Ns - слоисто-дождевые, Cu - кучевые, Cb - кучево-дождевые. Подробнее классификацию облаков см. в Атласе облаков (PDF).
  • T - Температура воздуха - температура, измеренная на высоте 2 м над землей.
  • Td - Температура точки росы - температура, при понижении до которой содержащийся в воздухе водяной пар достигнет насыщения.
  • f - Относительная влажность воздуха - влажноcть воздуха, измеренная на высоте 2 м над землей.
  • Te - Эффективная температура - температура, которую ощущает одетый по сезону человек в тени. Характеристика душности погоды. При расчете учитывается влияние влажности воздуха и скорости ветра на теплоощущения человека.
  • Tes - Эффективная температура на солнце - температура, которую ощущает человек, с поправкой на солнечный нагрев. Характеристика знойности погоды. Зависит от высоты солнца над горизонтом, облачности и скорости ветра. Ночью, в пасмурную погоду, а также при ветре 12 м/с и более поправка равна нулю.
  • P - Атмосферное давление - приведенное к уровню моря атмосферное давление.
  • Po - Атмосферное давление - измеренное на уровне метеостанции атмосферное давление.
  • Tmin - Минимальная температура - минимум температуры воздуха на высоте 2 м над землей.
  • Tmax - Максимальная температура - максимум температуры воздуха на высоте 2 м над землей.
  • R - Количество осадков - Количество выпавших осадков за период времени, мм. При наведении курсора мыши на число - период времени, за который выпало указанное количество осадков.
  • R24 - Количество осадков - Количество выпавших осадков за 24 часа, мм.
  • S - Снежный покров - Высота снежного покрова, см. При наведении курсора мыши на число - состояние снежного покрова и степень покрытия местности в баллах.